Location: Ku?niki
(51.4449°N, 17.8974°E)
Time: 08:06:36
(UTC+00:00)

DOVE 4 - Visible Passes

Search period start: 27 June 2022 00:00
Search period end: 07 July 2022 00:00
Orbit: 586 x 798 km, 97.8° (Epoch: 24 June)

Date Brightness Start Highest point End Pass type
(mag) Time Alt. Az. Time Alt. Az. Time Alt. Az.
27 Jun ? 00:00:10 10° N 00:03:53 23° WNW 00:07:45 10° WSW visible
27 Jun ? 21:24:39 10° NE 21:28:24 22° E 21:31:06 15° SE visible
27 Jun ? 23:01:34 10° N 23:06:19 62° WNW 23:09:46 20° SSW visible
28 Jun ? 00:41:11 10° NNW 00:43:05 12° NW 00:45:01 10° WNW visible
28 Jun ? 22:03:40 10° NNE 22:08:22 45° E 22:11:14 23° SSE visible
28 Jun ? 23:41:35 10° N 23:45:48 31° WNW 23:49:55 11° WSW visible
29 Jun ? 21:06:58 10° NE 21:09:58 16° E 21:12:42 11° ESE visible
29 Jun ? 22:43:12 10° NNE 22:48:07 86° WNW 22:51:22 23° SSW visible
30 Jun ? 00:22:03 10° NNW 00:25:05 17° NW 00:28:12 10° W visible
30 Jun ? 21:45:34 10° NNE 21:50:02 33° E 21:52:49 20° SE visible
30 Jun ? 23:23:04 10° N 23:27:42 42° WNW 23:31:30 15° SW visible
01 Jul ? 20:49:57 10° ENE 20:51:28 11° E 20:53:00 10° ESE visible
01 Jul ? 22:24:55 10° NNE 22:29:52 69° ESE 22:32:57 24° S visible
02 Jul ? 00:03:17 10° N 00:07:03 22° WNW 00:10:57 10° WSW visible
02 Jul ? 21:27:36 10° NE 21:31:39 24° E 21:34:23 16° SE visible
02 Jul ? 23:04:38 10° N 23:09:31 59° WNW 23:13:04 20° SW visible
03 Jul ? 00:44:20 10° NNW 00:46:12 12° NW 00:48:06 10° WNW visible
03 Jul ? 22:06:42 10° NNE 22:11:35 49° E 22:14:30 24° SSE visible
03 Jul ? 23:44:40 10° N 23:48:58 30° WNW 23:53:11 11° WSW visible
04 Jul ? 21:09:48 10° NE 21:13:12 18° E 21:15:56 12° ESE visible
04 Jul ? 22:46:16 10° NNE 22:51:18 81° WNW 22:54:37 23° SSW visible
05 Jul ? 00:25:10 10° NNW 00:28:12 16° NW 00:31:18 10° W visible
05 Jul ? 21:48:33 10° NNE 21:53:14 36° E 21:56:02 21° SSE visible
05 Jul ? 23:26:08 10° N 23:30:50 40° WNW 23:34:43 15° SW visible
06 Jul ? 20:52:26 10° ENE 20:54:41 13° E 20:56:56 10° ESE visible
06 Jul ? 22:27:56 10° NNE 22:33:03 75° ESE 22:36:08 25° S visible
